owner,sensor,date,latitude,longitude,vertical_datum,direction_of_sea_water_velocity,sea_water_speed,upward_sea_water_velocity,qcFlag 
TABS,ioos:station:wmo:42048:1,2007-07-01T00:30:00Z,27.9396,-96.8429,2.0,23.04404333,13.61652672,-99999.0,'11111222,11111222,99999999' 
TABS,ioos:station:wmo:42048:1,2007-07-01T01:00:00Z,27.9396,-96.8429,2.0,29.59754339,14.45629621,-99999.0,'11111222,11111222,99999999' 
TABS,ioos:station:wmo:42048:1,2007-07-01T01:30:00Z,27.9396,-96.8429,2.0,37.68414844,12.10522201,-99999.0,'11111222,11111222,99999999' 
TABS,ioos:station:wmo:42048:1,2007-07-01T02:00:00Z,27.9396,-96.8429,2.0,34.13474801,12.15384713,-99999.0,'11111222,11111222,99999999' 
TABS,ioos:station:wmo:42048:1,2007-07-01T02:30:00Z,27.9396,-96.8429,2.0,41.17363229,13.03274722,-99999.0,'11111222,11111222,99999999' 
TABS,ioos:station:wmo:42048:1,2007-07-01T03:00:00Z,27.9396,-96.8429,2.0,43.06272486,13.38611221,-99999.0,'11111222,11111222,99999999' 
TABS,ioos:station:wmo:42048:1,2007-07-01T03:30:00Z,27.9396,-96.8429,2.0,43.29292951,13.76640839,-99999.0,'11111222,11111222,99999999' 
TABS,ioos:station:wmo:42048:1,2007-07-01T04:30:00Z,27.9396,-96.8429,2.0,39.33113851,14.53140392,-99999.0,'11111222,11111222,99999999' 
TABS,ioos:station:wmo:42048:1,2007-07-01T05:00:00Z,27.9396,-96.8429,2.0,44.75857935,15.09686391,-99999.0,'11111222,11111222,99999999' 
TABS,ioos:station:wmo:42048:1,2007-07-01T05:30:00Z,27.9396,-96.8429,2.0,40.38585194,14.41513094,-99999.0,'11111222,11111222,99999999' 
TABS,ioos:station:wmo:42048:1,2007-07-01T06:00:00Z,27.9396,-96.8429,2.0,28.98752144,14.07297055,-99999.0,'11111222,11111222,99999999' 
TABS,ioos:station:wmo:42048:1,2007-07-01T06:30:00Z,27.9396,-96.8429,2.0,36.92836774,13.74800713,-99999.0,'11111222,11111222,99999999' 
TABS,ioos:station:wmo:42048:1,2007-07-01T07:00:00Z,27.9396,-96.8429,2.0,36.69901382,14.74206566,-99999.0,'11111222,11111222,99999999' 
TABS,ioos:station:wmo:42048:1,2007-07-01T07:30:00Z,27.9396,-96.8429,2.0,38.89095789,15.8798772,-99999.0,'11111222,11111222,99999999' 
TABS,ioos:station:wmo:42048:1,2007-07-01T08:00:00Z,27.9396,-96.8429,2.0,34.00926473,13.94537916,-99999.0,'11111222,11111222,99999999' 
TABS,ioos:station:wmo:42048:1,2007-07-01T08:30:00Z,27.9396,-96.8429,2.0,41.18603931,15.41371143,-99999.0,'11111222,11111222,99999999' 
TABS,ioos:station:wmo:42048:1,2007-07-01T09:00:00Z,27.9396,-96.8429,2.0,49.0594421,14.28403654,-99999.0,'11111222,11111222,99999999' 
TABS,ioos:station:wmo:42048:1,2007-07-01T09:30:00Z,27.9396,-96.8429,2.0,39.31693176,14.70941195,-99999.0,'11111222,11111222,99999999' 
TABS,ioos:station:wmo:42048:1,2007-07-01T10:00:00Z,27.9396,-96.8429,2.0,46.82457155,13.54796295,-99999.0,'11111222,11111222,99999999' 
TABS,ioos:station:wmo:42048:1,2007-07-01T10:30:00Z,27.9396,-96.8429,2.0,45.25988219,14.03621388,-99999.0,'11111222,11111222,99999999' 
TABS,ioos:station:wmo:42048:1,2007-07-01T11:00:00Z,27.9396,-96.8429,2.0,49.37089205,15.5875399,-99999.0,'11111222,11111222,99999999' 
TABS,ioos:station:wmo:42048:1,2007-07-01T11:30:00Z,27.9396,-96.8429,2.0,39.23584434,13.51752196,-99999.0,'11111222,11111222,99999999' 
TABS,ioos:station:wmo:42048:1,2007-07-01T12:00:00Z,27.9396,-96.8429,2.0,41.96793257,15.37281041,-99999.0,'11111222,11111222,99999999' 
TABS,ioos:station:wmo:42048:1,2007-07-01T12:30:00Z,27.9396,-96.8429,2.0,39.06182549,14.69475076,-99999.0,'11111222,11111222,99999999' 
TABS,ioos:station:wmo:42048:1,2007-07-01T13:00:00Z,27.9396,-96.8429,2.0,39.45076004,15.50172248,-99999.0,'11111222,11111222,99999999' 
TABS,ioos:station:wmo:42048:1,2007-07-01T14:00:00Z,27.9396,-96.8429,2.0,38.33481718,15.41303669,-99999.0,'11111222,11111222,99999999' 
TABS,ioos:station:wmo:42048:1,2007-07-01T14:30:00Z,27.9396,-96.8429,2.0,44.29109351,17.71438116,-99999.0,'11111222,11111222,99999999' 
TABS,ioos:station:wmo:42048:1,2007-07-01T15:00:00Z,27.9396,-96.8429,2.0,46.57010776,17.03352577,-99999.0,'11111222,11111222,99999999' 
TABS,ioos:station:wmo:42048:1,2007-07-01T15:30:00Z,27.9396,-96.8429,2.0,43.57903338,16.53724282,-99999.0,'11111222,11111222,99999999' 
TABS,ioos:station:wmo:42048:1,2007-07-01T16:00:00Z,27.9396,-96.8429,2.0,51.61896104,15.09124912,-99999.0,'11111222,11111222,99999999' 
TABS,ioos:station:wmo:42048:1,2007-07-01T17:00:00Z,27.9396,-96.8429,2.0,36.67855845,16.75809357,-99999.0,'11111222,11111222,99999999' 
TABS,ioos:station:wmo:42048:1,2007-07-01T17:30:00Z,27.9396,-96.8429,2.0,42.11226835,16.70185918,-99999.0,'11111222,11111222,99999999' 
TABS,ioos:station:wmo:42048:1,2007-07-01T18:00:00Z,27.9396,-96.8429,2.0,34.75447255,18.36651845,-99999.0,'11111222,11111222,99999999' 
TABS,ioos:station:wmo:42048:1,2007-07-01T19:00:00Z,27.9396,-96.8429,2.0,38.5408998,18.79399106,-99999.0,'11111222,11111222,99999999' 
TABS,ioos:station:wmo:42048:1,2007-07-01T20:00:00Z,27.9396,-96.8429,2.0,44.73788443,18.54053397,-99999.0,'11111222,11111222,99999999' 
TABS,ioos:station:wmo:42048:1,2007-07-01T20:30:00Z,27.9396,-96.8429,2.0,44.25936464,15.86173067,-99999.0,'11111222,11111222,99999999' 
TABS,ioos:station:wmo:42048:1,2007-07-01T21:00:00Z,27.9396,-96.8429,2.0,37.27195778,18.24644897,-99999.0,'11111222,11111222,99999999' 
TABS,ioos:station:wmo:42048:1,2007-07-01T21:30:00Z,27.9396,-96.8429,2.0,36.72924663,20.35006142,-99999.0,'11111222,11111222,99999999' 
TABS,ioos:station:wmo:42048:1,2007-07-01T22:00:00Z,27.9396,-96.8429,2.0,37.35219835,17.58662276,-99999.0,'11111222,11111222,99999999' 
TABS,ioos:station:wmo:42048:1,2007-07-01T22:30:00Z,27.9396,-96.8429,2.0,38.2916561,17.2513101,-99999.0,'11111222,11111222,99999999' 
TABS,ioos:station:wmo:42048:1,2007-07-01T23:00:00Z,27.9396,-96.8429,2.0,36.22182332,18.20916527,-99999.0,'11111222,11111222,99999999' 
TABS,ioos:station:wmo:42048:1,2007-07-01T23:30:00Z,27.9396,-96.8429,2.0,45.37198866,16.34158193,-99999.0,'11111222,11111222,99999999' 
TABS,ioos:station:wmo:42048:1,2007-07-02T00:30:00Z,27.9396,-96.8429,2.0,37.92088101,16.46676957,-99999.0,'11111222,11111222,99999999' 
TABS,ioos:station:wmo:42048:1,2007-07-02T01:00:00Z,27.9396,-96.8429,2.0,29.82535253,14.15485782,-99999.0,'11111222,11111222,99999999' 
TABS,ioos:station:wmo:42048:1,2007-07-02T01:30:00Z,27.9396,-96.8429,2.0,33.47641047,16.35267562,-99999.0,'11111222,11111222,99999999' 
TABS,ioos:station:wmo:42048:1,2007-07-02T02:00:00Z,27.9396,-96.8429,2.0,39.44916336,16.66688333,-99999.0,'11111222,11111222,99999999' 
TABS,ioos:station:wmo:42048:1,2007-07-02T03:00:00Z,27.9396,-96.8429,2.0,31.67008225,15.02784748,-99999.0,'11111222,11111222,99999999' 
TABS,ioos:station:wmo:42048:1,2007-07-02T03:30:00Z,27.9396,-96.8429,2.0,30.17365993,14.42440293,-99999.0,'11111222,11111222,99999999' 
TABS,ioos:station:wmo:42048:1,2007-07-02T04:00:00Z,27.9396,-96.8429,2.0,25.83233807,17.83186474,-99999.0,'11111222,11111222,99999999' 
TABS,ioos:station:wmo:42048:1,2007-07-02T04:30:00Z,27.9396,-96.8429,2.0,29.00085302,16.52157983,-99999.0,'11111222,11111222,99999999' 
TABS,ioos:station:wmo:42048:1,2007-07-02T05:00:00Z,27.9396,-96.8429,2.0,18.68946691,16.383922,-99999.0,'11111222,11111222,99999999' 
TABS,ioos:station:wmo:42048:1,2007-07-02T05:30:00Z,27.9396,-96.8429,2.0,14.41591536,15.74575816,-99999.0,'11111222,11111222,99999999' 
TABS,ioos:station:wmo:42048:1,2007-07-02T06:00:00Z,27.9396,-96.8429,2.0,353.7052788,16.78117993,-99999.0,'11111222,11111222,99999999' 
TABS,ioos:station:wmo:42048:1,2007-07-02T06:30:00Z,27.9396,-96.8429,2.0,354.352339,17.27385597,-99999.0,'11111222,11111222,99999999' 
TABS,ioos:station:wmo:42048:1,2007-07-02T07:00:00Z,27.9396,-96.8429,2.0,344.6396632,17.62977311,-99999.0,'11111222,11111222,99999999' 
TABS,ioos:station:wmo:42048:1,2007-07-02T07:30:00Z,27.9396,-96.8429,2.0,11.58925002,18.51750523,-99999.0,'11111222,11111222,99999999' 
TABS,ioos:station:wmo:42048:1,2007-07-02T08:00:00Z,27.9396,-96.8429,2.0,2.153392854,19.16353047,-99999.0,'11111222,11111222,99999999' 
TABS,ioos:station:wmo:42048:1,2007-07-02T08:30:00Z,27.9396,-96.8429,2.0,17.8978326,14.83805917,-99999.0,'11111222,11111222,99999999' 
TABS,ioos:station:wmo:42048:1,2007-07-02T09:00:00Z,27.9396,-96.8429,2.0,18.64719727,16.23208243,-99999.0,'11111222,11111222,99999999' 
TABS,ioos:station:wmo:42048:1,2007-07-02T09:30:00Z,27.9396,-96.8429,2.0,20.68344406,13.7032113,-99999.0,'11111222,11111222,99999999' 
TABS,ioos:station:wmo:42048:1,2007-07-02T10:00:00Z,27.9396,-96.8429,2.0,43.71996866,15.19244549,-99999.0,'11111222,11111222,99999999' 
TABS,ioos:station:wmo:42048:1,2007-07-02T10:30:00Z,27.9396,-96.8429,2.0,48.68673878,16.49558123,-99999.0,'11111222,11111222,99999999' 
TABS,ioos:station:wmo:42048:1,2007-07-02T11:00:00Z,27.9396,-96.8429,2.0,61.2948891,15.44858893,-99999.0,'11111222,11111222,99999999' 
TABS,ioos:station:wmo:42048:1,2007-07-02T11:30:00Z,27.9396,-96.8429,2.0,57.58776918,14.17888924,-99999.0,'11111222,11111222,99999999' 
TABS,ioos:station:wmo:42048:1,2007-07-02T12:00:00Z,27.9396,-96.8429,2.0,55.74061656,12.55903261,-99999.0,'11111222,11111222,99999999' 
TABS,ioos:station:wmo:42048:1,2007-07-02T12:30:00Z,27.9396,-96.8429,2.0,58.02507338,13.99303398,-99999.0,'11111222,11111222,99999999' 
TABS,ioos:station:wmo:42048:1,2007-07-02T13:00:00Z,27.9396,-96.8429,2.0,62.92952551,14.70048299,-99999.0,'11111222,11111222,99999999' 
TABS,ioos:station:wmo:42048:1,2007-07-02T13:30:00Z,27.9396,-96.8429,2.0,66.87487259,16.39756079,-99999.0,'11111222,11111222,99999999' 
TABS,ioos:station:wmo:42048:1,2007-07-02T14:00:00Z,27.9396,-96.8429,2.0,63.45265666,14.52102613,-99999.0,'11111222,11111222,99999999' 
TABS,ioos:station:wmo:42048:1,2007-07-02T14:30:00Z,27.9396,-96.8429,2.0,71.24304755,18.56602542,-99999.0,'11111222,11111222,99999999' 
TABS,ioos:station:wmo:42048:1,2007-07-02T15:00:00Z,27.9396,-96.8429,2.0,69.0934353,17.59863631,-99999.0,'11111222,11111222,99999999' 
TABS,ioos:station:wmo:42048:1,2007-07-02T15:30:00Z,27.9396,-96.8429,2.0,54.28745138,17.13149439,-99999.0,'11111222,11111222,99999999' 
TABS,ioos:station:wmo:42048:1,2007-07-02T16:00:00Z,27.9396,-96.8429,2.0,58.29043092,13.9645981,-99999.0,'11111222,11111222,99999999' 
TABS,ioos:station:wmo:42048:1,2007-07-02T17:00:00Z,27.9396,-96.8429,2.0,64.99941911,14.90671325,-99999.0,'11111222,11111222,99999999' 
TABS,ioos:station:wmo:42048:1,2007-07-02T17:30:00Z,27.9396,-96.8429,2.0,60.83424353,13.00942735,-99999.0,'11111222,11111222,99999999' 
TABS,ioos:station:wmo:42048:1,2007-07-02T18:30:00Z,27.9396,-96.8429,2.0,39.6195819,8.671983625,-99999.0,'11133222,11111222,99999999' 
TABS,ioos:station:wmo:42048:1,2007-07-02T19:00:00Z,27.9396,-96.8429,2.0,31.49954121,9.722679672,-99999.0,'11133222,11111222,99999999' 
TABS,ioos:station:wmo:42048:1,2007-07-02T19:30:00Z,27.9396,-96.8429,2.0,34.13903193,8.143248737,-99999.0,'11133222,11111222,99999999' 
TABS,ioos:station:wmo:42048:1,2007-07-02T20:00:00Z,27.9396,-96.8429,2.0,24.05139516,9.17670965,-99999.0,'11133222,11111222,99999999' 
TABS,ioos:station:wmo:42048:1,2007-07-02T20:30:00Z,27.9396,-96.8429,2.0,33.91589838,9.857098965,-99999.0,'11133222,11111222,99999999' 
TABS,ioos:station:wmo:42048:1,2007-07-02T21:30:00Z,27.9396,-96.8429,2.0,24.97406296,11.27412968,-99999.0,'11111222,11111222,99999999' 
TABS,ioos:station:wmo:42048:1,2007-07-02T22:00:00Z,27.9396,-96.8429,2.0,29.71661231,10.00588327,-99999.0,'11111222,11111222,99999999' 
TABS,ioos:station:wmo:42048:1,2007-07-02T22:30:00Z,27.9396,-96.8429,2.0,44.9210768,10.25305808,-99999.0,'11111222,11111222,99999999' 
TABS,ioos:station:wmo:42048:1,2007-07-02T23:00:00Z,27.9396,-96.8429,2.0,31.43591551,8.743294574,-99999.0,'11133222,11111222,99999999' 
TABS,ioos:station:wmo:42048:1,2007-07-02T23:30:00Z,27.9396,-96.8429,2.0,33.23013508,9.671509706,-99999.0,'11133222,11111222,99999999' 
TABS,ioos:station:wmo:42048:1,2007-07-03T00:00:00Z,27.9396,-96.8429,2.0,22.95646431,8.383990697,-99999.0,'11133222,11111222,99999999' 
TABS,ioos:station:wmo:42048:1,2007-07-03T00:30:00Z,27.9396,-96.8429,2.0,41.12292682,10.24821936,-99999.0,'11111222,11111222,99999999' 
TABS,ioos:station:wmo:42048:1,2007-07-03T01:00:00Z,27.9396,-96.8429,2.0,20.66628556,9.747204728,-99999.0,'11133222,11111222,99999999' 
TABS,ioos:station:wmo:42048:1,2007-07-03T01:30:00Z,27.9396,-96.8429,2.0,69.62184301,8.672790785,-99999.0,'11133222,11111222,99999999' 
TABS,ioos:station:wmo:42048:1,2007-07-03T02:30:00Z,27.9396,-96.8429,2.0,49.8845675,4.733592716,-99999.0,'11133222,11111222,99999999' 
TABS,ioos:station:wmo:42048:1,2007-07-03T03:00:00Z,27.9396,-96.8429,2.0,30.10963514,7.016787014,-99999.0,'11133222,11111222,99999999' 
TABS,ioos:station:wmo:42048:1,2007-07-03T03:30:00Z,27.9396,-96.8429,2.0,35.74400045,7.429434703,-99999.0,'11133222,11111222,99999999' 
TABS,ioos:station:wmo:42048:1,2007-07-03T04:00:00Z,27.9396,-96.8429,2.0,48.20800942,9.603416059,-99999.0,'11133222,11111222,99999999' 
TABS,ioos:station:wmo:42048:1,2007-07-03T04:30:00Z,27.9396,-96.8429,2.0,42.46523443,5.43589919,-99999.0,'11133222,11111222,99999999' 
TABS,ioos:station:wmo:42048:1,2007-07-03T05:00:00Z,27.9396,-96.8429,2.0,33.93353832,7.183432327,-99999.0,'11133222,11111222,99999999' 
TABS,ioos:station:wmo:42048:1,2007-07-03T05:30:00Z,27.9396,-96.8429,2.0,27.79058795,6.691845784,-99999.0,'11133222,11111222,99999999' 
TABS,ioos:station:wmo:42048:1,2007-07-03T06:00:00Z,27.9396,-96.8429,2.0,41.17784368,6.576579658,-99999.0,'11133222,11111222,99999999' 
TABS,ioos:station:wmo:42048:1,2007-07-03T06:30:00Z,27.9396,-96.8429,2.0,25.03993622,4.536353161,-99999.0,'11133222,11111222,99999999' 
TABS,ioos:station:wmo:42048:1,2007-07-03T07:00:00Z,27.9396,-96.8429,2.0,28.31697626,4.827690959,-99999.0,'11133222,11111222,99999999' 
TABS,ioos:station:wmo:42048:1,2007-07-03T07:30:00Z,27.9396,-96.8429,2.0,17.94698617,5.938972975,-99999.0,'11133222,11111222,99999999' 
TABS,ioos:station:wmo:42048:1,2007-07-03T09:00:00Z,27.9396,-96.8429,2.0,38.75722795,6.437491748,-99999.0,'11133222,11111222,99999999' 
TABS,ioos:station:wmo:42048:1,2007-07-03T09:30:00Z,27.9396,-96.8429,2.0,39.98026333,6.303284858,-99999.0,'11133222,11111222,99999999' 
TABS,ioos:station:wmo:42048:1,2007-07-03T10:00:00Z,27.9396,-96.8429,2.0,24.28944114,5.518496172,-99999.0,'11133222,11111222,99999999' 
TABS,ioos:station:wmo:42048:1,2007-07-03T10:30:00Z,27.9396,-96.8429,2.0,44.92693075,5.536650612,-99999.0,'11133222,11111222,99999999' 
TABS,ioos:station:wmo:42048:1,2007-07-03T11:00:00Z,27.9396,-96.8429,2.0,30.73562629,5.16557838,-99999.0,'11133222,11111222,99999999' 
TABS,ioos:station:wmo:42048:1,2007-07-03T11:30:00Z,27.9396,-96.8429,2.0,71.92936687,3.481738072,-99999.0,'11133222,11111222,99999999' 
TABS,ioos:station:wmo:42048:1,2007-07-03T12:00:00Z,27.9396,-96.8429,2.0,207.5147469,3.506636565,-99999.0,'11133222,11111222,99999999' 
TABS,ioos:station:wmo:42048:1,2007-07-03T12:30:00Z,27.9396,-96.8429,2.0,190.8574185,6.211191512,-99999.0,'11133222,11111222,99999999' 
TABS,ioos:station:wmo:42048:1,2007-07-03T13:00:00Z,27.9396,-96.8429,2.0,200.3889066,1.20552893,-99999.0,'11133222,11111222,99999999' 
TABS,ioos:station:wmo:42048:1,2007-07-03T13:30:00Z,27.9396,-96.8429,2.0,170.1962449,5.520615908,-99999.0,'11133222,11111222,99999999' 
TABS,ioos:station:wmo:42048:1,2007-07-03T14:00:00Z,27.9396,-96.8429,2.0,165.1360327,4.366096655,-99999.0,'11133222,11111222,99999999' 
TABS,ioos:station:wmo:42048:1,2007-07-03T14:30:00Z,27.9396,-96.8429,2.0,204.5643772,5.893394608,-99999.0,'11133222,11111222,99999999' 
TABS,ioos:station:wmo:42048:1,2007-07-03T15:00:00Z,27.9396,-96.8429,2.0,243.9561225,3.439215027,-99999.0,'11133222,11111222,99999999' 
TABS,ioos:station:wmo:42048:1,2007-07-03T15:30:00Z,27.9396,-96.8429,2.0,190.4689393,8.420172207,-99999.0,'11133222,11111222,99999999' 
TABS,ioos:station:wmo:42048:1,2007-07-03T16:30:00Z,27.9396,-96.8429,2.0,195.9040687,7.663347832,-99999.0,'11133222,11111222,99999999' 
TABS,ioos:station:wmo:42048:1,2007-07-03T17:00:00Z,27.9396,-96.8429,2.0,205.3051347,4.678984933,-99999.0,'11133222,11111222,99999999' 
TABS,ioos:station:wmo:42048:1,2007-07-03T17:30:00Z,27.9396,-96.8429,2.0,208.129844,4.093531483,-99999.0,'11133222,11111222,99999999' 
TABS,ioos:station:wmo:42048:1,2007-07-03T18:00:00Z,27.9396,-96.8429,2.0,212.4972851,6.663392529,-99999.0,'11133222,11111222,99999999' 
TABS,ioos:station:wmo:42048:1,2007-07-03T18:30:00Z,27.9396,-96.8429,2.0,218.2414891,6.849963504,-99999.0,'11133222,11111222,99999999' 
TABS,ioos:station:wmo:42048:1,2007-07-03T19:00:00Z,27.9396,-96.8429,2.0,221.7177937,5.064118877,-99999.0,'11133222,11111222,99999999' 
TABS,ioos:station:wmo:42048:1,2007-07-03T19:30:00Z,27.9396,-96.8429,2.0,219.7222906,5.304573498,-99999.0,'11133222,11111222,99999999' 
TABS,ioos:station:wmo:42048:1,2007-07-03T20:00:00Z,27.9396,-96.8429,2.0,199.3637324,2.925491412,-99999.0,'11133222,11111222,99999999' 
TABS,ioos:station:wmo:42048:1,2007-07-03T20:30:00Z,27.9396,-96.8429,2.0,176.3924468,4.609132239,-99999.0,'11133222,11111222,99999999' 
TABS,ioos:station:wmo:42048:1,2007-07-03T21:00:00Z,27.9396,-96.8429,2.0,189.5298951,5.556689662,-99999.0,'11133222,11111222,99999999' 
TABS,ioos:station:wmo:42048:1,2007-07-03T22:00:00Z,27.9396,-96.8429,2.0,190.4651035,6.386235198,-99999.0,'11133222,11111222,99999999' 
TABS,ioos:station:wmo:42048:1,2007-07-03T22:30:00Z,27.9396,-96.8429,2.0,305.6282449,0.738173421,-99999.0,'11133222,11111222,99999999' 
TABS,ioos:station:wmo:42048:1,2007-07-03T23:00:00Z,27.9396,-96.8429,2.0,143.7325394,2.282126202,-99999.0,'11133222,11111222,99999999' 
TABS,ioos:station:wmo:42048:1,2007-07-03T23:30:00Z,27.9396,-96.8429,2.0,247.7864845,3.359315406,-99999.0,'11133222,11111222,99999999' 
TABS,ioos:station:wmo:42048:1,2007-07-04T00:00:00Z,27.9396,-96.8429,2.0,96.301594,3.279817068,-99999.0,'11133222,11111222,99999999' 
TABS,ioos:station:wmo:42048:1,2007-07-04T00:30:00Z,27.9396,-96.8429,2.0,210.7074627,1.919088325,-99999.0,'11133222,11111222,99999999' 
TABS,ioos:station:wmo:42048:1,2007-07-04T01:00:00Z,27.9396,-96.8429,2.0,99.6197053,3.590487432,-99999.0,'11133222,11111222,99999999' 
TABS,ioos:station:wmo:42048:1,2007-07-04T01:30:00Z,27.9396,-96.8429,2.0,106.7746272,2.182887995,-99999.0,'11133222,11111222,99999999' 
TABS,ioos:station:wmo:42048:1,2007-07-04T02:00:00Z,27.9396,-96.8429,2.0,1.320153066,2.17057596,-99999.0,'11133222,11111222,99999999' 
TABS,ioos:station:wmo:42048:1,2007-07-04T02:30:00Z,27.9396,-96.8429,2.0,102.5674134,3.217079421,-99999.0,'11133222,11111222,99999999' 
TABS,ioos:station:wmo:42048:1,2007-07-04T03:00:00Z,27.9396,-96.8429,2.0,31.74985053,2.375478899,-99999.0,'11133222,11111222,99999999' 
TABS,ioos:station:wmo:42048:1,2007-07-04T03:30:00Z,27.9396,-96.8429,2.0,49.98945613,1.788686669,-99999.0,'11133222,11111222,99999999' 
TABS,ioos:station:wmo:42048:1,2007-07-04T04:00:00Z,27.9396,-96.8429,2.0,53.44261978,4.768070889,-99999.0,'11133222,11111222,99999999' 
TABS,ioos:station:wmo:42048:1,2007-07-04T05:00:00Z,27.9396,-96.8429,2.0,57.96592876,4.223032086,-99999.0,'11133222,11111222,99999999' 
TABS,ioos:station:wmo:42048:1,2007-07-04T05:30:00Z,27.9396,-96.8429,2.0,61.26027191,3.535533906,-99999.0,'11133222,11111222,99999999' 
TABS,ioos:station:wmo:42048:1,2007-07-04T06:00:00Z,27.9396,-96.8429,2.0,23.81963442,5.69509438,-99999.0,'11133222,11111222,99999999' 
TABS,ioos:station:wmo:42048:1,2007-07-04T06:30:00Z,27.9396,-96.8429,2.0,53.06132365,6.656004808,-99999.0,'11133222,11111222,99999999' 
TABS,ioos:station:wmo:42048:1,2007-07-04T07:00:00Z,27.9396,-96.8429,2.0,40.71096193,6.80729021,-99999.0,'11133222,11111222,99999999' 
TABS,ioos:station:wmo:42048:1,2007-07-04T08:30:00Z,27.9396,-96.8429,2.0,39.79721278,8.655293178,-99999.0,'11133222,11111222,99999999' 
TABS,ioos:station:wmo:42048:1,2007-07-04T09:00:00Z,27.9396,-96.8429,2.0,35.77880821,10.50190459,-99999.0,'11111222,11111222,99999999' 
TABS,ioos:station:wmo:42048:1,2007-07-04T09:30:00Z,27.9396,-96.8429,2.0,44.93809698,13.06734097,-99999.0,'11111222,11111222,99999999' 
TABS,ioos:station:wmo:42048:1,2007-07-04T10:00:00Z,27.9396,-96.8429,2.0,31.04451152,8.532063056,-99999.0,'11133222,11111222,99999999' 
TABS,ioos:station:wmo:42048:1,2007-07-04T10:30:00Z,27.9396,-96.8429,2.0,52.37712418,11.56499892,-99999.0,'11111222,11111222,99999999' 
TABS,ioos:station:wmo:42048:1,2007-07-04T11:30:00Z,27.9396,-96.8429,2.0,51.40385918,21.11158213,-99999.0,'11111222,11111222,99999999' 
TABS,ioos:station:wmo:42048:1,2007-07-04T12:00:00Z,27.9396,-96.8429,2.0,47.36748061,11.81169336,-99999.0,'11111222,11111222,99999999' 
TABS,ioos:station:wmo:42048:1,2007-07-04T13:00:00Z,27.9396,-96.8429,2.0,51.46829089,15.37846871,-99999.0,'11111222,11111222,99999999' 
TABS,ioos:station:wmo:42048:1,2007-07-04T13:30:00Z,27.9396,-96.8429,2.0,42.79669024,18.94325474,-99999.0,'11111222,11111222,99999999' 
TABS,ioos:station:wmo:42048:1,2007-07-04T14:30:00Z,27.9396,-96.8429,2.0,89.65916139,16.81029744,-99999.0,'11111222,11111222,99999999' 
TABS,ioos:station:wmo:42048:1,2007-07-04T15:00:00Z,27.9396,-96.8429,2.0,87.21444448,15.63847819,-99999.0,'11111222,11111222,99999999' 
TABS,ioos:station:wmo:42048:1,2007-07-04T15:30:00Z,27.9396,-96.8429,2.0,123.8058154,8.231767732,-99999.0,'11133222,11111222,99999999' 
TABS,ioos:station:wmo:42048:1,2007-07-04T16:00:00Z,27.9396,-96.8429,2.0,125.4663878,10.28908645,-99999.0,'11111222,11111222,99999999' 
TABS,ioos:station:wmo:42048:1,2007-07-04T16:30:00Z,27.9396,-96.8429,2.0,177.3928507,5.936143529,-99999.0,'11133222,11111222,99999999' 
TABS,ioos:station:wmo:42048:1,2007-07-04T17:00:00Z,27.9396,-96.8429,2.0,165.5758907,5.01817696,-99999.0,'11133222,11111222,99999999' 
TABS,ioos:station:wmo:42048:1,2007-07-04T17:30:00Z,27.9396,-96.8429,2.0,139.5888577,7.512343176,-99999.0,'11133222,11111222,99999999' 
TABS,ioos:station:wmo:42048:1,2007-07-04T18:00:00Z,27.9396,-96.8429,2.0,183.529788,9.257564475,-99999.0,'11133222,11111222,99999999' 
TABS,ioos:station:wmo:42048:1,2007-07-04T18:30:00Z,27.9396,-96.8429,2.0,219.3702853,8.93851218,-99999.0,'11133222,11111222,99999999' 
TABS,ioos:station:wmo:42048:1,2007-07-04T19:00:00Z,27.9396,-96.8429,2.0,191.0445121,7.203422798,-99999.0,'11133222,11111222,99999999' 
TABS,ioos:station:wmo:42048:1,2007-07-04T19:30:00Z,27.9396,-96.8429,2.0,211.7555289,6.327187369,-99999.0,'11133222,11111222,99999999' 
TABS,ioos:station:wmo:42048:1,2007-07-04T20:00:00Z,27.9396,-96.8429,2.0,212.5690413,8.507955101,-99999.0,'11133222,11111222,99999999' 
TABS,ioos:station:wmo:42048:1,2007-07-04T20:30:00Z,27.9396,-96.8429,2.0,212.2247833,8.570145856,-99999.0,'11133222,11111222,99999999' 
TABS,ioos:station:wmo:42048:1,2007-07-04T21:00:00Z,27.9396,-96.8429,2.0,231.2195935,11.16020161,-99999.0,'11111222,11111222,99999999' 
TABS,ioos:station:wmo:42048:1,2007-07-04T21:30:00Z,27.9396,-96.8429,2.0,217.0407458,12.05205377,-99999.0,'11111222,11111222,99999999' 
TABS,ioos:station:wmo:42048:1,2007-07-04T22:00:00Z,27.9396,-96.8429,2.0,208.0589332,12.69176505,-99999.0,'11111222,11111222,99999999' 
TABS,ioos:station:wmo:42048:1,2007-07-04T22:30:00Z,27.9396,-96.8429,2.0,216.4927669,14.29230912,-99999.0,'11111222,11111222,99999999' 
TABS,ioos:station:wmo:42048:1,2007-07-04T23:00:00Z,27.9396,-96.8429,2.0,224.08844,13.78325433,-99999.0,'11111222,11111222,99999999' 
TABS,ioos:station:wmo:42048:1,2007-07-04T23:30:00Z,27.9396,-96.8429,2.0,263.0366479,8.331446453,-99999.0,'11133222,11111222,99999999' 
TABS,ioos:station:wmo:42048:1,2007-07-05T00:00:00Z,27.9396,-96.8429,2.0,205.2190156,18.47054412,-99999.0,'11111222,11111222,99999999' 
TABS,ioos:station:wmo:42048:1,2007-07-05T00:30:00Z,27.9396,-96.8429,2.0,212.6199795,18.86586865,-99999.0,'11111222,11111222,99999999' 
TABS,ioos:station:wmo:42048:1,2007-07-05T01:30:00Z,27.9396,-96.8429,2.0,216.9438181,23.16001943,-99999.0,'11111222,11111222,99999999' 
TABS,ioos:station:wmo:42048:1,2007-07-05T02:30:00Z,27.9396,-96.8429,2.0,216.0791784,21.02200038,-99999.0,'11111222,11111222,99999999' 
TABS,ioos:station:wmo:42048:1,2007-07-05T03:00:00Z,27.9396,-96.8429,2.0,229.5201409,22.96756409,-99999.0,'11111222,11111222,99999999' 
TABS,ioos:station:wmo:42048:1,2007-07-05T03:30:00Z,27.9396,-96.8429,2.0,216.1046017,27.71247012,-99999.0,'11111222,11111222,99999999' 
TABS,ioos:station:wmo:42048:1,2007-07-05T04:00:00Z,27.9396,-96.8429,2.0,225.2098655,28.91379083,-99999.0,'11111222,11111222,99999999' 